FW8535 Weather Reports


time (UTC)temp
C
wind
direction
speed
KPH
gust
KPH
rain 1hr
cm
rain 24hr
cm
rain mn
cm
humidity
%
barometer
mb
20260906214537 33 46 3.2 14.5 0.00 0.00 0.00 42 1006.0
20260906214027 33 46 3.2 9.7 0.00 0.00 0.00 41 1006.0
20260906213626 33 42 3.2 8.0 0.00 0.00 0.00 41 1006.0
20260906212523 33 37 3.2 14.5 0.00 0.00 0.00 40 1005.9
20260906212022 33 51 3.2 16.1 0.00 0.00 0.00 40 1005.9
20260906211521 33 51 6.4 16.1 0.00 0.00 0.00 40 1006.0
20260906211121 33 61 1.6 14.5 0.00 0.00 0.00 41 1006.1
20260906210521 32 61 3.2 14.5 0.00 0.00 0.00 43 1006.2
20260906205517 33 80 4.8 12.9 0.00 0.00 0.00 41 1006.5
20260906205016 32 78 1.6 12.9 0.00 0.00 0.00 41 1006.7
20260906204517 33 112 6.4 12.9 0.00 0.00 0.00 41 1006.8
20260906204013 32 104 1.6 6.4 0.00 0.00 0.00 42 1007.0
20260906203513 32 107 6.4 16.1 0.00 0.00 0.00 44 1007.1
20260906202507 32 61 4.8 14.5 0.00 0.00 0.00 43 1007.2
20260906202006 32 105 4.8 11.3 0.00 0.00 0.00 43 1007.3
20260906201506 31 137 3.2 8.0 0.00 0.00 0.00 43 1007.3
20260906201007 31 142 3.2 11.3 0.00 0.00 0.00 44 1007.4
20260906200503 31 147 3.2 14.5 0.00 0.00 0.00 45 1007.4
20260906200003 31 217 4.8 14.5 0.00 0.00 0.00 46 1007.5
20260906195502 31 227 1.6 14.5 0.00 0.00 0.00 47 1007.3
20260906195002 31 196 3.2 9.7 0.00 0.00 0.00 47 1007.7
20260906194600 31 197 1.6 14.5 0.00 0.00 0.00 48 1007.8
20260906194059 31 199 1.6 14.5 0.00 0.00 0.00 49 1007.7
20260906193558 30 205 6.4 12.9 0.00 0.00 0.00 50 1007.9
20260906192558 30 188 6.4 14.5 0.00 0.00 0.00 51 1008.1
20260906192102 30 259 4.8 14.5 0.00 0.00 0.00 53 1008.2
20260906191558 30 227 4.8 11.3 0.00 0.00 0.00 56 1008.4
20260906191054 29 227 1.6 9.7 0.00 0.00 0.00 58 1008.5
20260906190553 28 227 3.2 12.9 0.00 0.00 0.00 59 1008.4
20260906190052 28 255 6.4 14.5 0.00 0.00 0.00 59 1008.6
20260906185552 28 236 6.4 11.3 0.00 0.00 0.00 59 1008.7
20260906185050 28 290 1.6 12.9 0.00 0.00 0.00 61 1008.8
20260906184549 28 311 0.0 12.9 0.00 0.00 0.00 62 1008.7
20260906184047 27 313 6.4 12.9 0.00 0.00 0.00 62 1008.9
20260906183547 27 272 1.6 12.9 0.00 0.00 0.00 63 1009.0
20260906182543 27 240 4.8 12.9 0.00 0.00 0.00 64 1009.3
20260906182043 27 251 1.6 9.7 0.00 0.00 0.00 65 1009.3
20260906181545 26 228 3.2 9.7 0.00 0.00 0.00 66 1009.3
20260906181040 26 288 6.4 11.3 0.00 0.00 0.00 66 1009.4
20260906180540 26 315 1.6 9.7 0.00 0.00 0.00 68 1009.4
20260906180039 26 196 3.2 9.7 0.00 0.00 0.00 69 1009.5
20260906175541 25 331 1.6 8.0 0.00 0.00 0.00 72 1009.7
20260906175035 25 226 0.0 8.0 0.00 0.00 0.00 74 1009.6
20260906174535 24 232 0.0 9.7 0.00 0.00 0.00 74 1009.7
20260906174035 24 232 3.2 9.7 0.00 0.00 0.00 75 1009.7
20260906173532 24 193 1.6 9.7 0.00 0.00 0.00 76 1009.8
20260906172534 24 216 4.8 12.9 0.00 0.00 0.00 75 1010.1
20260906172035 23 213 4.8 12.9 0.00 0.00 0.00 76 1010.0
20260906171532 23 207 3.2 9.7 0.00 0.00 0.00 78 1010.0
20260906171030 23 209 4.8 9.7 0.00 0.00 0.00 78 1009.8
20260906170531 23 209 3.2 11.3 0.00 0.00 0.00 79 1009.7
20260906170031 23 211 6.4 11.3 0.00 0.00 0.00 80 1009.8
20260906165529 23 219 6.4 14.5 0.00 0.00 0.00 80 1010.0
20260906165029 22 218 6.4 14.5 0.00 0.00 0.00 81 1010.0
20260906164529 22 227 4.8 12.9 0.00 0.00 0.00 82 1010.2
20260906164028 22 139 1.6 8.0 0.00 0.00 0.00 82 1010.0
20260906163527 22 139 1.6 12.9 0.00 0.00 0.00 82 1009.9
20260906162526 22 194 1.6 6.4 0.00 0.00 0.00 85 1009.7
20260906162022 21 155 3.2 8.0 0.00 0.00 0.00 86 1009.5
20260906161528 21 331 0.0 6.4 0.00 0.00 0.00 88 1009.4
20260906161023 21 25 0.0 8.0 0.00 0.00 0.00 90 1009.4
20260906160519 20 349 1.6 8.0 0.00 0.00 0.00 91 1009.3
20260906160031 20 20 3.2 8.0 0.00 0.00 0.00 93 1009.5
20260906155518 19 102 3.2 14.5 0.00 0.00 0.00 92 1009.6
20260906155022 19 31 6.4 12.9 0.00 0.00 0.00 92 1009.5
20260906154534 19 43 3.2 14.5 0.00 0.00 0.00 92 1009.5
20260906154018 19 14 4.8 14.5 0.00 0.00 0.00 92 1009.7
20260906153523 19 51 3.2 14.5 0.00 0.00 0.00 92 1009.7
20260906152521 19 29 4.8 14.5 0.00 0.00 0.00 92 1010.2
20260906152020 19 5 4.8 12.9 0.00 0.00 0.00 92 1010.0
20260906151519 20 32 3.2 9.7 0.00 0.00 0.00 92 1010.2
20260906151021 19 349 3.2 11.3 0.00 0.00 0.00 92 1009.8
20260906150521 20 18 6.4 11.3 0.00 0.00 0.00 92 1010.0
20260906150022 20 44 3.2 14.5 0.00 0.00 0.00 92 1009.7
20260906145520 20 53 6.4 14.5 0.00 0.00 0.00 91 1009.2
20260906145119 20 31 6.4 17.7 0.00 0.00 0.00 91 1009.1
20260906144519 20 50 9.7 17.7 0.00 0.00 0.00 91 1009.0
20260906144021 20 21 6.4 14.5 0.00 0.00 0.00 92 1009.1
20260906143518 20 51 8.0 14.5 0.00 0.00 0.00 93 1009.3
20260906142519 20 41 4.8 14.5 0.00 0.00 0.00 93 1009.6
20260906142016 19 12 4.8 16.1 0.00 0.00 0.00 93 1009.3
20260906141516 19 34 6.4 17.7 0.00 0.00 0.00 93 1009.1
20260906141015 20 15 9.7 17.7 0.00 0.00 0.00 93 1009.0
20260906140519 19 342 8.0 19.3 0.00 0.00 0.00 94 1009.1
20260906140018 19 334 11.3 19.3 0.00 0.00 0.00 94 1008.6
20260906135515 19 34 9.7 19.3 0.00 0.00 0.00 94 1008.6
20260906135013 19 55 9.7 17.7 0.00 0.00 0.00 94 1009.3
20260906134513 19 45 4.8 12.9 0.00 0.00 0.00 94 1010.3
20260906134014 19 355 4.8 12.9 0.00 0.00 0.00 94 1010.2
20260906133515 19 349 4.8 9.7 0.00 0.00 0.00 94 1010.4
20260906132512 19 10 1.6 8.0 0.00 0.00 0.00 94 1010.9
20260906132011 19 5 1.6 8.0 0.00 0.00 0.00 94 1010.7
20260906131515 19 19 3.2 8.0 0.00 0.00 0.00 94 1010.8
20260906131012 19 336 0.0 8.0 0.00 0.00 0.00 94 1010.8
20260906130510 19 14 1.6 4.8 0.00 0.00 0.00 94 1010.6
20260906130020 18 276 0.0 4.8 0.00 0.00 0.00 94 1010.6
20260906125509 18 272 0.0 3.2 0.00 0.00 0.00 94 1010.3
20260906125011 18 272 0.0 4.8 0.00 0.00 0.00 94 1010.5
20260906124508 18 272 0.0 4.8 0.00 0.00 0.00 94 1010.3
20260906124008 18 272 0.0 6.4 0.00 0.00 0.00 94 1010.4
20260906123507 18 272 0.0 6.4 0.00 0.00 0.00 94 1010.4
20260906122508 18 277 1.6 6.4 0.00 0.00 0.00 94 1009.9
20260906122008 18 277 3.2 8.0 0.00 0.00 0.00 94 1010.0
20260906121510 18 78 3.2 6.4 0.00 0.00 0.00 94 1009.8
20260906121008 18 99 1.6 6.4 0.00 0.00 0.00 94 1010.1
20260906120508 18 105 1.6 8.0 0.00 0.00 0.00 94 1009.9
20260906120006 18 24 0.0 9.7 0.00 0.00 0.00 94 1009.7
20260906115507 18 40 3.2 9.7 0.00 0.00 0.00 94 1009.5
20260906115006 18 49 6.4 14.5 0.00 0.00 0.00 94 1009.7
20260906114508 18 9 6.4 14.5 0.00 0.00 0.00 94 1009.4
20260906114011 18 5 4.8 12.9 0.00 0.00 0.00 94 1009.3
20260906113506 18 36 6.4 12.9 0.00 0.00 0.00 94 1009.4
20260906112508 18 350 0.0 4.8 0.00 0.00 0.00 93 1010.4
20260906112009 18 350 0.0 4.8 0.00 0.00 0.00 93 1010.5
20260906111513 18 355 0.0 4.8 0.00 0.00 0.00 93 1010.5
20260906111007 18 355 0.0 0.0 0.00 0.00 0.00 93 1010.4
20260906110508 18 355 0.0 0.0 0.00 0.00 0.00 93 1010.3
20260906110012 18 355 0.0 3.2 0.00 0.00 0.00 93 1010.2
20260906105507 18 355 0.0 3.2 0.00 0.00 0.00 93 1010.2
20260906105005 18 355 0.0 3.2 0.00 0.00 0.00 93 1010.4
20260906104508 18 355 0.0 4.8 0.00 0.00 0.00 93 1010.3
20260906104003 18 355 0.0 4.8 0.00 0.00 0.00 93 1010.1
20260906103502 18 355 0.0 0.0 0.00 0.00 0.00 93 1010.1
20260906102505 18 355 0.0 4.8 0.00 0.00 0.00 93 1010.3
20260906102005 18 355 1.6 4.8 0.00 0.00 0.00 93 1009.9
20260906101506 18 355 0.0 1.6 0.00 0.00 0.00 93 1009.9
20260906101006 18 355 0.0 6.4 0.00 0.00 0.00 92 1009.7
20260906100505 18 355 1.6 6.4 0.00 0.00 0.00 92 1009.7
20260906100004 18 355 1.6 4.8 0.00 0.00 0.00 92 1009.4
20260906095504 18 355 0.0 4.8 0.00 0.00 0.00 92 1009.8
20260906095004 18 355 0.0 6.4 0.00 0.00 0.00 92 1009.8
20260906094503 18 355 3.2 6.4 0.00 0.00 0.00 92 1009.6
20260906094003 18 355 0.0 0.0 0.00 0.00 0.00 92 1009.9
20260906093503 18 355 0.0 3.2 0.00 0.00 0.00 92 1009.7
20260906092558 18 355 0.0 4.8 0.00 0.00 0.00 92 1009.7
20260906092059 18 355 0.0 6.4 0.00 0.00 0.00 92 1009.6
20260906091559 18 355 3.2 6.4 0.00 0.00 0.00 92 1009.2
20260906091059 18 347 0.0 4.8 0.00 0.00 0.00 91 1009.2
20260906090557 18 348 3.2 4.8 0.00 0.00 0.00 91 1009.4
20260906090108 18 347 0.0 3.2 0.00 0.00 0.00 91 1009.8
20260906090008 18 347 0.0 3.2 0.00 0.00 0.00 91 1009.7
20260906085554 18 347 1.6 3.2 0.00 0.00 0.00 91 1009.6
20260906085054 18 347 0.0 0.0 0.00 0.00 0.00 91 1009.8
20260906084554 18 347 0.0 4.8 0.00 0.00 0.00 91 1009.9
20260906084053 18 347 1.6 4.8 0.00 0.00 0.00 91 1009.7
20260906083553 18 355 1.6 4.8 0.00 0.00 0.00 90 1009.9
20260906082554 18 355 0.0 4.8 0.00 0.00 0.00 90 1009.8
20260906082057 18 355 1.6 4.8 0.00 0.00 0.00 90 1009.7
20260906081555 19 355 0.0 4.8 0.00 0.00 0.00 90 1009.6
20260906081056 19 355 0.0 4.8 0.00 0.00 0.00 89 1009.8
20260906080552 19 355 1.6 4.8 0.00 0.00 0.00 89 1009.6
20260906080051 19 355 1.6 6.4 0.00 0.00 0.00 89 1009.9
20260906075550 19 355 1.6 6.4 0.00 0.00 0.00 89 1009.8
20260906075050 20 342 1.6 6.4 0.00 0.00 0.00 89 1009.9
20260906074550 20 360 1.6 8.0 0.00 0.00 0.00 89 1009.7
20260906074049 20 360 1.6 8.0 0.00 0.00 0.00 89 1009.8
20260906073549 20 17 3.2 8.0 0.00 0.00 0.00 90 1009.9
20260906072547 20 20 3.2 8.0 0.00 0.00 0.00 89 1010.0
20260906072047 20 360 3.2 8.0 0.00 0.00 0.00 89 1010.0
20260906071557 20 9 4.8 6.4 0.00 0.00 0.00 89 1009.9
20260906071049 20 360 3.2 8.0 0.00 0.00 0.00 88 1010.0
20260906070545 20 5 3.2 8.0 0.00 0.00 0.00 88 1009.9
20260906070044 20 36 1.6 8.0 0.00 0.00 0.00 88 1010.0
20260906065545 20 45 3.2 9.7 0.00 0.00 0.00 87 1010.2
20260906065042 20 44 4.8 12.9 0.00 0.00 0.00 87 1010.1
20260906064543 20 44 4.8 12.9 0.00 0.00 0.00 87 1010.2
20260906064044 20 34 6.4 11.3 0.00 0.00 0.00 87 1010.2
20260906063544 20 38 4.8 9.7 0.00 0.00 0.00 86 1010.3
20260906062544 21 38 4.8 11.3 0.00 0.00 0.00 86 1010.1
20260906062045 21 51 4.8 11.3 0.00 0.00 0.00 86 1010.3
20260906061542 21 46 4.8 11.3 0.00 0.00 0.00 86 1010.2
20260906061041 21 45 3.2 12.9 0.00 0.00 0.00 85 1010.3
20260906060541 21 355 4.8 12.9 0.00 0.00 0.00 85 1010.3
20260906060041 21 17 4.8 9.7 0.00 0.00 0.00 85 1010.3
20260906055541 21 355 4.8 9.7 0.00 0.00 0.00 84 1010.2
20260906055041 21 13 4.8 8.0 0.00 0.00 0.00 84 1010.3
20260906054544 21 10 3.2 9.7 0.00 0.00 0.00 84 1010.2
20260906054040 21 10 4.8 9.7 0.00 0.00 0.00 84 1010.2
20260906053540 21 31 4.8 9.7 0.00 0.00 0.00 83 1010.1
20260906052538 21 14 4.8 9.7 0.00 0.00 0.00 82 1010.1
20260906052036 21 21 3.2 12.9 0.00 0.00 0.00 81 1010.0
20260906051545 21 13 4.8 12.9 0.00 0.00 0.00 81 1009.9
20260906051036 22 39 4.8 12.9 0.00 0.00 0.00 81 1010.0
20260906050539 22 39 4.8 16.1 0.00 0.00 0.00 80 1010.1
20260906050058 22 46 4.8 16.1 0.00 0.00 0.00 80 1010.0
20260906045536 22 19 4.8 12.9 0.00 0.00 0.00 80 1009.9
20260906045035 22 5 4.8 12.9 0.00 0.00 0.00 80 1010.0
20260906044536 22 11 3.2 8.0 0.00 0.00 0.00 80 1009.9
20260906044037 22 13 1.6 14.5 0.00 0.00 0.00 79 1009.9
20260906043535 22 28 4.8 14.5 0.00 0.00 0.00 79 1010.1
20260906042535 22 5 3.2 6.4 0.00 0.00 0.00 78 1009.9
20260906042035 22 360 3.2 6.4 0.00 0.00 0.00 78 1010.0
20260906041536 22 355 3.2 6.4 0.00 0.00 0.00 77 1009.9
20260906041035 22 355 4.8 8.0 0.00 0.00 0.00 77 1009.8
20260906040535 22 335 3.2 8.0 0.00 0.00 0.00 77 1009.9
20260906040041 22 346 3.2 6.4 0.00 0.00 0.00 76 1010.1
20260906035536 22 5 3.2 6.4 0.00 0.00 0.00 75 1010.0
20260906035035 22 350 0.0 6.4 0.00 0.00 0.00 75 1010.2
20260906034541 22 342 3.2 8.0 0.00 0.00 0.00 75 1010.0
20260906034037 22 322 3.2 8.0 0.00 0.00 0.00 75 1009.9
20260906033534 22 342 3.2 6.4 0.00 0.00 0.00 74 1009.9
20260906032537 23 309 3.2 8.0 0.00 0.00 0.00 73 1010.0
20260906032038 23 5 3.2 12.9 0.00 0.00 0.00 73 1010.2
20260906031542 23 355 3.2 12.9 0.00 0.00 0.00 73 1010.0
20260906031038 23 340 1.6 6.4 0.00 0.00 0.00 73 1010.0
20260906030540 23 348 1.6 4.8 0.00 0.00 0.00 73 1010.1
20260906030037 23 360 1.6 4.8 0.00 0.00 0.00 72 1010.1
20260906025537 23 355 1.6 4.8 0.00 0.00 0.00 72 1010.0
20260906025037 23 355 1.6 6.4 0.00 0.00 0.00 72 1010.0
20260906024538 23 355 3.2 8.0 0.00 0.00 0.00 72 1010.0
20260906024037 23 5 3.2 8.0 0.00 0.00 0.00 72 1010.1
20260906023540 23 355 1.6 6.4 0.00 0.00 0.00 72 1010.1
20260906022537 23 348 1.6 4.8 0.00 0.00 0.00 71 1010.1
20260906022037 23 348 0.0 4.8 0.00 0.00 0.00 70 1010.0
20260906021536 23 348 3.2 4.8 0.00 0.00 0.00 69 1010.0
20260906021036 23 348 3.2 4.8 0.00 0.00 0.00 69 1009.9
20260906020536 24 348 3.2 4.8 0.00 0.00 0.00 68 1009.9
20260906020035 24 348 3.2 4.8 0.00 0.00 0.00 68 1009.7
20260906015534 25 348 0.0 6.4 0.00 0.00 0.00 67 1009.7
20260906015033 25 347 1.6 6.4 0.00 0.00 0.00 67 1009.6
20260906014534 25 331 1.6 6.4 0.00 0.00 0.00 66 1009.3
20260906014032 25 350 1.6 6.4 0.00 0.00 0.00 65 1009.3
20260906013532 26 355 3.2 9.7 0.00 0.00 0.00 65 1009.2
20260906012525 26 5 6.4 14.5 0.00 0.00 0.00 64 1009.0
20260906012025 26 360 4.8 14.5 0.00 0.00 0.00 63 1009.0
20260906011525 27 30 6.4 12.9 0.00 0.00 0.00 62 1008.9
20260906011026 27 49 3.2 12.9 0.00 0.00 0.00 62 1008.8
20260906010525 27 16 4.8 12.9 0.00 0.00 0.00 61 1008.8
20260906010024 27 47 4.8 14.5 0.00 0.00 0.00 61 1008.7
20260906005529 27 24 8.0 14.5 0.00 0.00 0.00 60 1008.6
20260906005024 28 57 4.8 16.1 0.00 0.00 0.00 60 1008.4
20260906004524 28 32 8.0 20.9 0.00 0.00 0.00 60 1008.5
20260906004025 28 55 6.4 20.9 0.00 0.00 0.00 59 1008.4
20260906003526 28 50 8.0 16.1 0.00 0.00 0.00 59 1008.2
20260906002529 28 28 6.4 17.7 0.00 0.00 0.00 58 1008.2
20260906002030 28 53 8.0 17.7 0.00 0.00 0.00 58 1008.1
20260906001527 29 54 6.4 17.7 0.00 0.00 0.00 58 1008.1
20260906001027 29 51 8.0 22.5 0.00 0.00 0.00 58 1008.0
20260906000526 29 55 11.3 22.5 0.00 0.00 0.00 57 1008.0
20260906000030 30 49 9.7 20.9 0.00 0.00 0.00 57 1008.1
20260905235526 30 41 9.7 20.9 0.00 0.00 0.00 56 1008.0
20260905235026 30 44 6.4 19.3 0.00 0.00 0.00 56 1007.9
20260905234525 30 36 6.4 19.3 0.00 0.00 0.00 56 1008.0
20260905234026 30 50 8.0 17.7 0.00 0.00 0.00 56 1007.7
20260905233526 30 53 6.4 17.7 0.00 0.00 0.00 56 1007.8
20260905232522 30 50 9.7 17.7 0.00 0.00 0.00 55 1007.6
20260905232021 30 51 6.4 17.7 0.00 0.00 0.00 54 1007.7
20260905231521 31 48 9.7 19.3 0.00 0.00 0.00 54 1007.7
20260905231020 31 49 6.4 19.3 0.00 0.00 0.00 54 1007.6
20260905230519 31 44 6.4 16.1 0.00 0.00 0.00 54 1007.6
20260905230019 31 62 4.8 14.5 0.00 0.00 0.00 54 1007.7
20260905225520 31 53 4.8 17.7 0.00 0.00 0.00 54 1007.6
20260905225018 31 53 4.8 17.7 0.00 0.00 0.00 54 1007.5
20260905224519 31 46 4.8 17.7 0.00 0.00 0.00 53 1007.5
20260905224019 31 47 4.8 17.7 0.00 0.00 0.00 53 1007.4
20260905223519 31 48 6.4 16.1 0.00 0.00 0.00 53 1007.3
20260905222521 31 57 4.8 16.1 0.00 0.00 0.00 53 1007.4
20260905222020 31 42 8.0 16.1 0.00 0.00 0.00 52 1007.5
20260905221522 31 32 8.0 16.1 0.00 0.00 0.00 52 1007.5
20260905221021 32 34 8.0 17.7 0.00 0.00 0.00 51 1007.6
20260905220522 31 32 8.0 17.7 0.00 0.00 0.00 49 1007.5
20260905220019 32 5 8.0 16.1 0.00 0.00 0.00 49 1007.6
20260905215519 32 24 6.4 14.5 0.00 0.00 0.00 49 1007.7
20260905215018 31 31 6.4 14.5 0.00 0.00 0.00 49 1007.6